EN

Hourly Weather Altepexi

Today, 17 January, Sunday

Time Temperature Precipitation Wind Pressure Humidity
00:00 +15°C° 0 mm 1 mps 655 mmHg 89%
01:00 +15°C° 0 mm 1 mps 655 mmHg 89%
02:00 +15°C° 0 mm 1 mps 654 mmHg 88%
03:00 +14°C° 0 mm 0 mps 654 mmHg 88%
04:00 +14°C° 0 mm 0 mps 654 mmHg 87%
05:00 +15°C° 0 mm 1 mps 654 mmHg 86%
06:00 +15°C° 0 mm 1 mps 654 mmHg 86%
07:00 +18°C° 0 mm 1 mps 655 mmHg 79%
08:00 +20°C° 0 mm 1 mps 656 mmHg 72%
09:00 +21°C° 0 mm 1 mps 656 mmHg 66%
10:00 +23°C° 0 mm 1 mps 657 mmHg 58%
11:00 +25°C° 0 mm 1 mps 657 mmHg 51%
12:00 +27°C° 0 mm 2 mps 657 mmHg 43%
13:00 +28°C° 0.2 mm 2 mps 657 mmHg 40%
14:00 +28°C° 0.2 mm 2 mps 656 mmHg 38%
15:00 +29°C° 0.2 mm 2 mps 655 mmHg 36%
16:00 +27°C° 0.2 mm 3 mps 655 mmHg 44%
17:00 +25°C° 0.2 mm 3 mps 655 mmHg 52%
18:00 +24°C° 0.2 mm 3 mps 655 mmHg 60%
19:00 +21°C° 0.4 mm 3 mps 656 mmHg 71%
20:00 +19°C° 0.4 mm 2 mps 656 mmHg 83%
21:00 +17°C° 0.4 mm 2 mps 656 mmHg 94%
22:00 +17°C° 0 mm 2 mps 656 mmHg 93%
23:00 +17°C° 0 mm 2 mps 656 mmHg 93%

Tomorrow, 18 January, Monday

Time Temperature Precipitation Wind Pressure Humidity
00:00 +18°C° 0 mm 1 mps 657 mmHg 93%
01:00 +18°C° 0 mm 1 mps 656 mmHg 93%
02:00 +18°C° 0 mm 1 mps 655 mmHg 93%
03:00 +16°C° 0 mm 1 mps 655 mmHg 94%
04:00 +16°C° 0 mm 1 mps 655 mmHg 94%
05:00 +16°C° 0 mm 1 mps 655 mmHg 93%
06:00 +15°C° 0 mm 1 mps 655 mmHg 93%
07:00 +16°C° 0 mm 1 mps 656 mmHg 90%
08:00 +16°C° 0 mm 1 mps 656 mmHg 88%
09:00 +17°C° 0 mm 2 mps 657 mmHg 85%
10:00 +18°C° 0 mm 2 mps 657 mmHg 80%
11:00 +19°C° 0 mm 2 mps 657 mmHg 76%
12:00 +20°C° 0 mm 2 mps 656 mmHg 72%
13:00 +20°C° 0 mm 2 mps 656 mmHg 68%
14:00 +21°C° 0 mm 3 mps 655 mmHg 64%
15:00 +22°C° 0 mm 3 mps 655 mmHg 60%
16:00 +21°C° 0 mm 3 mps 655 mmHg 63%
17:00 +21°C° 0 mm 2 mps 655 mmHg 67%
18:00 +20°C° 0 mm 2 mps 655 mmHg 71%
19:00 +19°C° 0 mm 2 mps 655 mmHg 76%
20:00 +18°C° 0 mm 2 mps 655 mmHg 82%
21:00 +16°C° 0 mm 1 mps 655 mmHg 87%
22:00 +16°C° 0 mm 1 mps 655 mmHg 89%
23:00 +15°C° 0 mm 1 mps 655 mmHg 91%

Day after tomorrow, 19 January, Tuesday

Time Temperature Precipitation Wind Pressure Humidity
00:00 +14°C° 0 mm 0 mps 655 mmHg 93%
01:00 +14°C° 0 mm 0 mps 655 mmHg 93%
02:00 +13°C° 0 mm 0 mps 655 mmHg 93%
03:00 +13°C° 0 mm 0 mps 655 mmHg 93%
04:00 +13°C° 0 mm 0 mps 654 mmHg 93%
05:00 +13°C° 0 mm 0 mps 654 mmHg 92%
06:00 +13°C° 0 mm 0 mps 654 mmHg 91%
07:00 +14°C° 0 mm 0 mps 655 mmHg 84%
08:00 +16°C° 0 mm 0 mps 656 mmHg 77%
09:00 +18°C° 0 mm 0 mps 657 mmHg 70%
10:00 +22°C° 0 mm 1 mps 657 mmHg 62%
11:00 +24°C° 0 mm 1 mps 657 mmHg 55%
12:00 +26°C° 0 mm 2 mps 658 mmHg 47%
13:00 +26°C° 0 mm 2 mps 657 mmHg 47%
14:00 +27°C° 0 mm 3 mps 657 mmHg 46%
15:00 +27°C° 0 mm 3 mps 656 mmHg 45%
16:00 +26°C° 0 mm 3 mps 656 mmHg 53%
17:00 +24°C° 0 mm 3 mps 656 mmHg 61%
18:00 +21°C° 0 mm 3 mps 656 mmHg 68%
19:00 +20°C° 0 mm 3 mps 656 mmHg 73%
20:00 +19°C° 0 mm 2 mps 656 mmHg 78%
21:00 +17°C° 0 mm 2 mps 657 mmHg 82%
22:00 +16°C° 0 mm 2 mps 656 mmHg 86%
23:00 +16°C° 0 mm 1 mps 656 mmHg 90%

20 January, Wednesday

Time Temperature Precipitation Wind Pressure Humidity
00:00 +15°C° 0 mm 1 mps 656 mmHg 93%
01:00 +15°C° 0 mm 1 mps 656 mmHg 93%
02:00 +15°C° 0 mm 1 mps 656 mmHg 94%
03:00 +15°C° 0 mm 1 mps 656 mmHg 94%
04:00 +15°C° 0 mm 1 mps 656 mmHg 94%
05:00 +15°C° 0 mm 1 mps 656 mmHg 94%
06:00 +16°C° 0 mm 1 mps 656 mmHg 93%
07:00 +16°C° 0 mm 2 mps 657 mmHg 91%
08:00 +17°C° 0 mm 2 mps 657 mmHg 89%
09:00 +18°C° 0 mm 2 mps 658 mmHg 88%
10:00 +18°C° 0.1 mm 2 mps 658 mmHg 86%
11:00 +19°C° 0.1 mm 2 mps 658 mmHg 84%
12:00 +19°C° 0.1 mm 2 mps 658 mmHg 82%
13:00 +21°C° 0 mm 3 mps 657 mmHg 70%
14:00 +22°C° 0 mm 4 mps 657 mmHg 59%
15:00 +23°C° 0 mm 5 mps 657 mmHg 47%
16:00 +22°C° 0 mm 5 mps 657 mmHg 51%
17:00 +21°C° 0 mm 4 mps 657 mmHg 56%
18:00 +19°C° 0 mm 4 mps 656 mmHg 61%
19:00 +18°C° 0 mm 4 mps 657 mmHg 70%
20:00 +17°C° 0 mm 3 mps 657 mmHg 78%
21:00 +14°C° 0 mm 3 mps 658 mmHg 87%
22:00 +15°C° 0 mm 2 mps 657 mmHg 89%
23:00 +15°C° 0 mm 2 mps 657 mmHg 91%

21 January, Thursday

Time Temperature Precipitation Wind Pressure Humidity
00:00 +14°C° 0 mm 2 mps 657 mmHg 92%
01:00 +14°C° 0 mm 2 mps 657 mmHg 93%
02:00 +14°C° 0 mm 1 mps 657 mmHg 94%
03:00 +14°C° 0 mm 1 mps 656 mmHg 95%
04:00 +15°C° 0 mm 1 mps 656 mmHg 94%
05:00 +15°C° 0 mm 1 mps 656 mmHg 94%
06:00 +15°C° 0 mm 1 mps 657 mmHg 94%
07:00 +16°C° 0 mm 1 mps 657 mmHg 90%
08:00 +18°C° 0 mm 1 mps 657 mmHg 87%
09:00 +19°C° 0 mm 1 mps 658 mmHg 83%
10:00 +20°C° 0 mm 2 mps 658 mmHg 73%
11:00 +23°C° 0 mm 2 mps 658 mmHg 64%
12:00 +24°C° 0 mm 3 mps 658 mmHg 54%
13:00 +25°C° 0 mm 3 mps 657 mmHg 51%
14:00 +26°C° 0 mm 3 mps 656 mmHg 48%
15:00 +27°C° 0 mm 3 mps 656 mmHg 46%
16:00 +26°C° 0 mm 3 mps 656 mmHg 51%
17:00 +24°C° 0 mm 3 mps 655 mmHg 56%
18:00 +22°C° 0 mm 3 mps 655 mmHg 61%
19:00 +21°C° 0 mm 2 mps 655 mmHg 69%
20:00 +20°C° 0 mm 1 mps 655 mmHg 76%
21:00 +19°C° 0 mm 1 mps 655 mmHg 83%
22:00 +18°C° 0 mm 1 mps 655 mmHg 84%
23:00 +16°C° 0 mm 0 mps 655 mmHg 85%

22 January, Friday

Time Temperature Precipitation Wind Pressure Humidity
00:00 +15°C° 0 mm 0 mps 655 mmHg 85%
01:00 +15°C° 0 mm 0 mps 654 mmHg 84%
02:00 +15°C° 0 mm 0 mps 654 mmHg 83%
03:00 +16°C° 0 mm 1 mps 654 mmHg 82%
04:00 +16°C° 0 mm 1 mps 654 mmHg 81%
05:00 +16°C° 0 mm 1 mps 654 mmHg 79%
06:00 +16°C° 0 mm 1 mps 654 mmHg 78%
07:00 +19°C° 0 mm 1 mps 655 mmHg 69%
08:00 +21°C° 0 mm 1 mps 656 mmHg 59%
09:00 +23°C° 0 mm 1 mps 657 mmHg 50%
10:00 +25°C° 0 mm 1 mps 657 mmHg 43%
11:00 +27°C° 0 mm 1 mps 657 mmHg 36%
12:00 +29°C° 0 mm 1 mps 657 mmHg 30%
13:00 +30°C° 0 mm 1 mps 656 mmHg 27%
14:00 +31°C° 0 mm 1 mps 656 mmHg 25%
15:00 +31°C° 0 mm 2 mps 655 mmHg 23%
16:00 +30°C° 0 mm 2 mps 655 mmHg 30%
17:00 +28°C° 0 mm 2 mps 655 mmHg 36%
18:00 +26°C° 0 mm 2 mps 655 mmHg 43%
19:00 +25°C° 0 mm 2 mps 655 mmHg 49%
20:00 +23°C° 0 mm 2 mps 655 mmHg 54%
21:00 +21°C° 0 mm 1 mps 655 mmHg 60%
22:00 +21°C° 0 mm 1 mps 655 mmHg 61%
23:00 +20°C° 0 mm 1 mps 655 mmHg 62%
Show more